Princeton, MN

4:13 PM CST on November 11, 2019 (GMT -0600)
Princeton Municipal

Weather History for KPNM - September, 2019

Change the Weather History Date:

Tuesday, September 10, 2019

  Actual Average Record
Temperature  
Mean Temperature 68 °F -  
Max Temperature 77 °F 73 °F 89 °F (2005)
Min Temperature 60 °F 50 °F 35 °F (2004)
Cooling Degree Days 4    
Growing Degree Days 18 (Base 50)    
Moisture  
Dew Point 64 °F    
Average Humidity 82    
Maximum Humidity 100    
Minimum Humidity 57    
Precipitation  
Precipitation 0.00 in - - ()
Sea Level Pressure  
Sea Level Pressure 29.92 in    
Wind  
Wind Speed 5 mph (WSW)    
Max Wind Speed 12 mph    
Max Gust Speed 16 mph    
Visibility 9 miles    
Events      
Averages and records for this station are not official NWS values.
T = Trace of Precipitation, MM = Missing Value Source: NWS Daily Summary

Daily Weather History Graph

Daily Weather History Graph

Search for Another Location

Airport or City:

Astronomy

Sep. 10, 2019 Rise Set
Actual Time 6:46 AM CDT 7:35 PM CDT
Civil Twilight 6:16 AM CDT 8:05 PM CDT
Nautical Twilight 5:40 AM CDT 8:41 PM CDT
Astronomical Twilight 5:03 AM CDT 9:18 PM CDT
Moon 6:24 PM CDT (9/10) 2:59 AM CDT (9/10)
Length of Visible Light 13h 49m
Length of Day
12h 49m
Waxing Gibbous, 89% of the Moon is Illuminated
Sep 10
Waxing Gibbous
Sep 13
Full
Sep 21
Last Quarter
Sep 28
New
Oct 5
First Quarter

Hourly Weather History & Observations

Time (CDT) Temp. Dew Point Humidity Pressure Visibility Wind Dir Wind Speed Gust Speed Precip Events Conditions
12:19 AM 66.2 °F 66.2 °F 100% 29.78 in 4.0 mi SE 5.8 mph - N/A   Overcast
12:37 AM 68.0 °F 66.2 °F 94% 29.78 in 4.0 mi SE 5.8 mph - N/A   Overcast
12:55 AM 68.0 °F 66.2 °F 94% 29.78 in 4.0 mi South 5.8 mph - N/A   Overcast
1:15 AM 69.8 °F 68.0 °F 94% 29.78 in 5.0 mi SSE 8.1 mph - N/A   Overcast
1:35 AM 69.8 °F 68.0 °F 94% 29.79 in 5.0 mi South 6.9 mph - N/A   Overcast
1:40 AM 69.8 °F 68.0 °F 94% 29.78 in 5.0 mi SSE 5.8 mph - N/A   Overcast
1:58 AM 69.8 °F 68.0 °F 94% 29.78 in 4.0 mi South 8.1 mph - N/A   Overcast
2:16 AM 69.8 °F 66.2 °F 88% 29.78 in 4.0 mi South 4.6 mph - N/A   Mostly Cloudy
2:35 AM 68.0 °F 66.2 °F 94% 29.77 in 4.0 mi Calm Calm - N/A   Scattered Clouds
2:36 AM 68.0 °F 66.2 °F 94% 29.77 in 4.0 mi Calm Calm - N/A   Scattered Clouds
2:55 AM 68.0 °F 66.2 °F 94% 29.76 in 4.0 mi Calm Calm - N/A   Clear
2:56 AM 68.0 °F 66.2 °F 94% 29.76 in 4.0 mi Calm Calm - N/A   Clear
3:19 AM 68.0 °F 66.2 °F 94% 29.76 in 5.0 mi South 3.5 mph - N/A   Clear
3:37 AM 68.0 °F 66.2 °F 94% 29.76 in 5.0 mi South 4.6 mph - N/A   Clear
3:55 AM 68.0 °F 66.2 °F 94% 29.77 in 7.0 mi SSW 4.6 mph - N/A   Clear
4:15 AM 68.0 °F 66.2 °F 94% 29.77 in 7.0 mi SSW 3.5 mph - N/A   Mostly Cloudy
4:35 AM 69.8 °F 68.0 °F 94% 29.78 in 7.0 mi Calm Calm - N/A   Overcast
4:39 AM 69.8 °F 66.2 °F 88% 29.79 in 7.0 mi SW 3.5 mph - N/A   Overcast
4:58 AM 69.8 °F 68.0 °F 94% 29.79 in 10.0 mi WSW 6.9 mph - N/A   Overcast
5:16 AM 69.8 °F 68.0 °F 94% 29.79 in 7.0 mi SW 4.6 mph - N/A   Overcast
5:35 AM 69.8 °F 68.0 °F 94% 29.80 in 10.0 mi WSW 6.9 mph - N/A   Overcast
5:55 AM 69.8 °F 66.2 °F 88% 29.81 in 10.0 mi SW 3.5 mph - N/A   Scattered Clouds
6:19 AM 68.0 °F 66.2 °F 94% 29.82 in 7.0 mi SSW 3.5 mph - N/A   Clear
6:37 AM 66.2 °F 66.2 °F 100% 29.83 in 5.0 mi SW 3.5 mph - N/A   Scattered Clouds
6:55 AM 66.2 °F 66.2 °F 100% 29.84 in 7.0 mi SW 4.6 mph - N/A   Mostly Cloudy
6:56 AM 66.2 °F 66.2 °F 100% 29.84 in 7.0 mi SW 4.6 mph - N/A   Mostly Cloudy
7:15 AM 68.0 °F 66.2 °F 94% 29.85 in 7.0 mi WSW 8.1 mph - N/A   Overcast
7:35 AM 68.0 °F 66.2 °F 94% 29.86 in 10.0 mi WSW 6.9 mph - N/A   Overcast
7:58 AM 68.0 °F 66.2 °F 94% 29.87 in 10.0 mi WSW 6.9 mph - N/A   Overcast
8:16 AM 68.0 °F 64.4 °F 88% 29.87 in 10.0 mi WSW 5.8 mph - N/A   Overcast
8:35 AM 68.0 °F 64.4 °F 88% 29.88 in 10.0 mi WSW 9.2 mph - N/A   Overcast
8:36 AM 69.8 °F 64.4 °F 83% 29.88 in 10.0 mi WSW 8.1 mph - N/A   Overcast
9:04 AM 68.0 °F 62.6 °F 83% 29.89 in 10.0 mi WSW 9.2 mph - N/A   Overcast
9:15 AM 68.0 °F 62.6 °F 83% 29.90 in 10.0 mi West 10.4 mph 16.1 mph N/A   Overcast
9:20 AM 68.0 °F 62.6 °F 83% 29.91 in 10.0 mi West 9.2 mph 16.1 mph N/A   Overcast
9:38 AM 69.8 °F 64.4 °F 83% 29.92 in 10.0 mi SW 5.8 mph - N/A   Overcast
9:56 AM 69.8 °F 62.6 °F 78% 29.92 in 10.0 mi SW 6.9 mph - N/A   Overcast
10:15 AM 69.8 °F 62.6 °F 78% 29.92 in 10.0 mi SW 8.1 mph - N/A   Mostly Cloudy
10:35 AM 71.6 °F 62.6 °F 73% 29.92 in 10.0 mi West 9.2 mph - N/A   Mostly Cloudy
10:36 AM 71.6 °F 62.6 °F 73% 29.92 in 10.0 mi West 8.1 mph - N/A   Mostly Cloudy
10:58 AM 71.6 °F 64.4 °F 78% 29.93 in 10.0 mi SW 9.2 mph - N/A   Overcast
11:16 AM 71.6 °F 64.4 °F 78% 29.94 in 10.0 mi SW 8.1 mph - N/A   Mostly Cloudy
11:35 AM 71.6 °F 62.6 °F 73% 29.95 in 10.0 mi WSW 8.1 mph - N/A   Overcast
11:36 AM 71.6 °F 62.6 °F 73% 29.95 in 10.0 mi WSW 9.2 mph - N/A   Overcast
11:55 AM 71.6 °F 62.6 °F 73% 29.95 in 10.0 mi SW 5.8 mph - N/A   Mostly Cloudy
11:56 AM 73.4 °F 64.4 °F 73% 29.95 in 10.0 mi SW 5.8 mph - N/A   Mostly Cloudy
12:19 PM 73.4 °F 64.4 °F 73% 29.96 in 10.0 mi West 8.1 mph - N/A   Mostly Cloudy
12:37 PM 73.4 °F 62.6 °F 69% 29.96 in 10.0 mi WSW 5.8 mph - N/A   Mostly Cloudy
12:55 PM 71.6 °F 62.6 °F 73% 29.97 in 10.0 mi West 8.1 mph - N/A   Mostly Cloudy
1:15 PM 73.4 °F 62.6 °F 69% 29.97 in 10.0 mi West 8.1 mph - N/A   Mostly Cloudy
1:16 PM 73.4 °F 62.6 °F 69% 29.97 in 10.0 mi West 8.1 mph - N/A   Mostly Cloudy
1:35 PM 75.2 °F 62.6 °F 65% 29.97 in 10.0 mi SW 8.1 mph - N/A   Mostly Cloudy
1:39 PM 75.2 °F 62.6 °F 65% 29.97 in 10.0 mi West 5.8 mph - N/A   Mostly Cloudy
1:57 PM 73.4 °F 62.6 °F 69% 29.98 in 10.0 mi West 8.1 mph - N/A   Mostly Cloudy
2:15 PM 75.2 °F 62.6 °F 65% 29.98 in 10.0 mi WSW 10.4 mph - N/A   Scattered Clouds
2:16 PM 75.2 °F 62.6 °F 65% 29.98 in 10.0 mi WSW 9.2 mph - N/A   Scattered Clouds
2:35 PM 75.2 °F 62.6 °F 65% 29.98 in 10.0 mi West 9.2 mph - N/A   Scattered Clouds
2:55 PM 75.2 °F 62.6 °F 65% 29.99 in 10.0 mi WSW 6.9 mph - N/A   Scattered Clouds
3:18 PM 75.2 °F 62.6 °F 65% 29.99 in 10.0 mi West 5.8 mph - N/A   Mostly Cloudy
3:36 PM 77.0 °F 62.6 °F 61% 29.99 in 10.0 mi WSW 8.1 mph 16.1 mph N/A   Scattered Clouds
3:55 PM 77.0 °F 62.6 °F 61% 29.99 in 10.0 mi West 11.5 mph - N/A   Scattered Clouds
3:56 PM 77.0 °F 62.6 °F 61% 29.99 in 10.0 mi West 10.4 mph - N/A   Scattered Clouds
4:39 PM 77.0 °F 60.8 °F 57% 29.99 in 10.0 mi West 9.2 mph - N/A   Clear
4:57 PM 77.0 °F 60.8 °F 57% 29.99 in 10.0 mi West 6.9 mph - N/A   Clear
5:15 PM 75.2 °F 60.8 °F 61% 30.00 in 10.0 mi West 8.1 mph - N/A   Clear
5:16 PM 75.2 °F 60.8 °F 61% 30.00 in 10.0 mi West 8.1 mph - N/A   Clear
5:35 PM 75.2 °F 62.6 °F 65% 30.00 in 10.0 mi West 5.8 mph - N/A   Clear
5:55 PM 75.2 °F 60.8 °F 61% 30.00 in 10.0 mi West 4.6 mph - N/A   Clear
6:18 PM 75.2 °F 62.6 °F 65% 30.00 in 10.0 mi Calm Calm - N/A   Clear
6:37 PM 73.4 °F 62.6 °F 69% 30.00 in 10.0 mi Calm Calm - N/A   Clear
6:55 PM 73.4 °F 62.6 °F 69% 30.00 in 10.0 mi Calm Calm - N/A   Clear
6:56 PM 73.4 °F 62.6 °F 69% 30.01 in 10.0 mi Calm Calm - N/A   Clear
7:15 PM 69.8 °F 62.6 °F 78% 30.02 in 10.0 mi Calm Calm - N/A   Clear
7:16 PM 69.8 °F 62.6 °F 78% 30.02 in 10.0 mi Calm Calm - N/A   Clear
7:35 PM 66.2 °F 62.6 °F 88% 30.02 in 10.0 mi NW 3.5 mph - N/A   Clear
7:58 PM 64.4 °F 60.8 °F 88% 30.03 in 10.0 mi Calm Calm - N/A   Clear
8:16 PM 62.6 °F 60.8 °F 94% 30.04 in 10.0 mi Calm Calm - N/A   Clear
8:36 PM 62.6 °F 60.8 °F 94% 30.05 in 10.0 mi Calm Calm - N/A   Clear
8:55 PM 62.6 °F 60.8 °F 94% 30.05 in 10.0 mi Calm Calm - N/A   Clear
9:18 PM 62.6 °F 60.8 °F 94% 30.05 in 10.0 mi Calm Calm - N/A   Clear
9:36 PM 62.6 °F 60.8 °F 94% 30.06 in 10.0 mi Calm Calm - N/A   Clear
9:55 PM 62.6 °F 60.8 °F 94% 30.06 in 10.0 mi Calm Calm - N/A   Clear
10:15 PM 62.6 °F 59.0 °F 88% 30.06 in 10.0 mi North 3.5 mph - N/A   Clear
10:39 PM 62.6 °F 59.0 °F 88% 30.08 in 10.0 mi North 4.6 mph - N/A   Clear
10:57 PM 60.8 °F 59.0 °F 94% 30.09 in 10.0 mi Calm Calm - N/A   Clear
11:15 PM 60.8 °F 59.0 °F 94% 30.09 in 10.0 mi Calm Calm - N/A   Clear
11:35 PM 60.8 °F 57.2 °F 88% 30.09 in 10.0 mi NNE 3.5 mph - N/A   Clear
11:55 PM 60.8 °F 57.2 °F 88% 30.08 in 10.0 mi NNE 4.6 mph - N/A   Clear